User: anonymous   Login
Location: Muenchen
(48.1800°N, 11.5800°E)
Time: 21:15:36
(UTC+02:00)
Language:

Cosmos 2233 Rocket - Orbit

View from above orbital plane
View from above orbital plane
View from above satellite
View from above satellite

Ground track
Ground track

The orbit data is extracted from the following two-line orbital elements,

1 22488U 93008B   17141.48736424 +.00000085 +00000-0 +69857-4 0  9998
2 22488 082.9422 098.3091 0024234 302.0923 188.4722 13.77720494220580
Epoch (UTC): 21 May 2017 11:41:48
Eccentricity: 0.0024234
inclination: 82.9422°
perigee height: 954 km
apogee height: 990 km
right ascension of ascending node: 98.3091°
argument of perigee: 302.0923°
revolutions per day: 13.77720494
mean anomaly at epoch: 188.4722°
orbit number at epoch: 22058

The dashed part of the orbit path shows where the satellite is in the earth's shadow,  

DLR